This is the latest recevied weather packets stored in our database for station/object N4AN. If no packets are shown the sender has not sent any weather packets the latest 10 day(s).
| Time | Temp. | Humidity | Pressure | Rain* | Wind** | Luminosity | Snow |
|---|---|---|---|---|---|---|---|
| 1787603525 | 35° C | 63% | 1010 hPa | 0 mm | - | - | - |
| 1787603224 | 35.56° C | 63% | 1010.1 hPa | 0 mm | - | - | - |
| 1787602924 | 35.56° C | 63% | 1010.2 hPa | 0 mm | - | - | - |
| 1787602628 | 35.56° C | 62% | 1010.4 hPa | 0 mm | - | - | - |
| 1787602628 | 35.56° C | 62% | 1010.4 hPa | 0 mm | - | - | - |
| 1787602628 | 35.56° C | 63% | 1010.3 hPa | 0 mm | - | - | - |
| 1787601723 | 35° C | 64% | 1010.4 hPa | 0 mm | - | - | - |
| 1787601423 | 35° C | 63% | 1010.5 hPa | 0 mm | - | - | - |
| 1787601123 | 35° C | 63% | 1010.4 hPa | 0 mm | - | - | - |
| 1787600822 | 34.44° C | 65% | 1010.5 hPa | 0 mm | - | - | - |
| 1787600522 | 34.44° C | 66% | 1010.5 hPa | 0 mm | - | - | - |
| 1787600222 | 33.89° C | 66% | 1010.6 hPa | 0 mm | - | - | - |
| 1787599921 | 34.44° C | 66% | 1010.6 hPa | 0 mm | - | - | - |
| 1787599621 | 33.89° C | 66% | 1010.8 hPa | 0 mm | - | - | - |
| 1787599319 | 33.89° C | 66% | 1010.9 hPa | 0 mm | - | - | - |
| 1787599019 | 33.33° C | 67% | 1011.1 hPa | 0 mm | - | - | - |
| 1787598719 | 33.89° C | 67% | 1011 hPa | 0 mm | - | - | - |
| 1787598118 | 34.44° C | 65% | 1011.1 hPa | 0 mm | - | - | - |
| 1787597816 | 34.44° C | 65% | 1011.1 hPa | 0 mm | - | - | - |
| 1787597516 | 34.44° C | 64% | 1011.2 hPa | 0 mm | - | - | - |
| 1787597216 | 33.89° C | 65% | 1011.3 hPa | 0 mm | - | - | - |
| 1787596916 | 33.89° C | 66% | 1011.3 hPa | 0 mm | - | - | - |
| 1787596615 | 33.33° C | 67% | 1011.4 hPa | 0 mm | - | - | - |
| 1787596315 | 32.22° C | 69% | 1011.6 hPa | 0 mm | - | - | - |
| 1787596015 | 31.67° C | 70% | 1011.6 hPa | 0 mm | - | - | - |
* Rain latest hour (hover to see other rain measurements)
** Current wind speed in m/s (hover to see current wind gust speed)